Yuma MCAS, AZ

9:27 PM MST on March 28, 2017 (GMT -0700)
Yuma Marine Corps Air Station

Weather History for KNYL - September, 2013

Change the Weather History Date:

Saturday, September 7, 2013

  Actual Average Record
Temperature  
Mean Temperature 90 °F 92 °F  
Max Temperature 98 °F 104 °F 114 °F (1979)
Min Temperature 82 °F 80 °F 56 °F (1911)
Degree Days  
Heating Degree Days 0 0  
Month to date heating degree days 0 0  
Since 1 July heating degree days 0 0  
Cooling Degree Days 25 27  
Month to date cooling degree days 209 192  
Year to date cooling degree days 3907 3645  
Growing Degree Days 40 (Base 50)    
Moisture  
Dew Point 64 °F    
Average Humidity 44    
Maximum Humidity 58    
Minimum Humidity 29    
Precipitation  
Precipitation 0.00 in 0.02 in 1.85 in (1926)
Month to date precipitation 0.03 0.12  
Year to date precipitation 1.83 2.21  
Sea Level Pressure  
Sea Level Pressure 29.83 in    
Wind  
Wind Speed 6 mph (ESE)    
Max Wind Speed 18 mph    
Max Gust Speed 24 mph    
Visibility 10 miles    
Events      
T = Trace of Precipitation, MM = Missing Value Source: NWS Daily Summary

Daily Weather History Graph

Daily Weather History Graph

Search for Another Location

Airport or City:

Trip Planner

Search our weather history database for the weather conditions in past years. The results will help you decide how hot, cold, wet, or windy it might be!

Date:

Astronomy

Sep. 07, 2013 Rise Set
Actual Time 6:17 AM MST 6:54 PM MST
Civil Twilight 5:52 AM MST 7:19 PM MST
Nautical Twilight 5:23 AM MST 7:48 PM MST
Astronomical Twilight 4:53 AM MST 8:18 PM MST
Moon 8:25 AM MST (9/7) 8:07 PM MST (9/7)
Length of Visible Light 13h 27m
Length of Day
12h 37m
Waxing Crescent, 6% of the Moon is Illuminated
Sep 7
Waxing Crescent
Sep 12
First Quarter
Sep 19
Full
Sep 26
Last Quarter
Oct 4
New

Hourly Weather History & Observations

Time (MST) Temp. Heat Index Dew Point Humidity Pressure Visibility Wind Dir Wind Speed Gust Speed Precip Events Conditions
12:57 AM 84.0 °F 85.4 °F 64.0 °F 51% 29.82 in 10.0 mi NW 8.1 mph - N/A   Overcast
1:57 AM 82.9 °F 84.4 °F 64.0 °F 53% 29.83 in 10.0 mi West 3.5 mph - N/A   Mostly Cloudy
2:57 AM 82.9 °F 84.4 °F 64.0 °F 53% 29.84 in 10.0 mi South 6.9 mph - N/A   Mostly Cloudy
3:57 AM 82.0 °F 83.8 °F 64.9 °F 56% 29.85 in 10.0 mi Calm Calm - N/A   Mostly Cloudy
4:57 AM 82.9 °F 84.6 °F 64.9 °F 54% 29.86 in 10.0 mi East 5.8 mph - N/A   Mostly Cloudy
5:57 AM 82.0 °F 84.1 °F 66.0 °F 58% 29.86 in 10.0 mi East 5.8 mph - N/A   Mostly Cloudy
6:57 AM 82.0 °F 84.5 °F 66.9 °F 60% 29.87 in 10.0 mi ENE 9.2 mph - N/A   Mostly Cloudy
7:57 AM 82.9 °F 85.4 °F 66.9 °F 58% 29.87 in 10.0 mi ENE 8.1 mph - N/A   Mostly Cloudy
8:57 AM 84.0 °F 86.5 °F 66.9 °F 56% 29.88 in 10.0 mi ENE 8.1 mph - N/A   Mostly Cloudy
9:57 AM 86.0 °F 87.6 °F 64.9 °F 49% 29.89 in 10.0 mi ENE 10.4 mph - N/A   Mostly Cloudy
10:57 AM 87.1 °F 88.3 °F 64.0 °F 46% 29.89 in 10.0 mi ENE 6.9 mph - N/A   Mostly Cloudy
11:57 AM 88.0 °F 89.3 °F 64.0 °F 45% 29.88 in 10.0 mi Calm Calm - N/A   Mostly Cloudy
12:57 PM 91.0 °F 92.6 °F 64.0 °F 41% 29.86 in 10.0 mi Variable 3.5 mph - N/A   Mostly Cloudy
1:57 PM 93.0 °F 94.2 °F 63.0 °F 37% 29.83 in 10.0 mi South 4.6 mph - N/A   Mostly Cloudy
2:57 PM 93.9 °F 94.0 °F 61.0 °F 33% 29.80 in 10.0 mi Calm Calm - N/A   Mostly Cloudy
3:57 PM 98.1 °F 98.6 °F 61.0 °F 29% 29.78 in 10.0 mi Variable 4.6 mph - N/A   Mostly Cloudy
4:57 PM 95.0 °F 95.2 °F 61.0 °F 32% 29.78 in 10.0 mi ESE 5.8 mph - N/A   Mostly Cloudy
5:57 PM 93.9 °F 93.6 °F 60.1 °F 32% 29.78 in 10.0 mi South 5.8 mph - N/A   Mostly Cloudy
6:57 PM 93.9 °F 94.0 °F 61.0 °F 33% 29.78 in 10.0 mi SSW 8.1 mph - N/A   Mostly Cloudy
7:57 PM 87.1 °F 88.9 °F 64.9 °F 48% 29.80 in 10.0 mi WSW 16.1 mph - N/A   Mostly Cloudy
8:57 PM 82.9 °F 85.4 °F 66.9 °F 58% 29.81 in 10.0 mi West 10.4 mph - N/A   Mostly Cloudy
9:57 PM 82.0 °F 84.5 °F 66.9 °F 60% 29.81 in 10.0 mi Calm Calm - N/A   Mostly Cloudy
10:57 PM 82.0 °F 84.5 °F 66.9 °F 60% 29.80 in 10.0 mi West 6.9 mph - N/A   Mostly Cloudy
11:57 PM 82.9 °F 85.0 °F 66.0 °F 56% 29.79 in 10.0 mi NNW 8.1 mph - N/A   Scattered Clouds